sat.trackr.live / text

‹ back to catalog

STARLINK-32867

NORAD 62855 · 2025-022B

PAYLOAD ACTIVE UNKNOWN

§ Identity

Operator
Country
US
Launch date
2025-02-01
Launch site
AFWTR
Launch vehicle
Mass (kg)
RCS (m²)

Purposes: comms

External: N2YO · Heavens-Above · Gunter

§ Orbital elements

Epoch: 2026-05-25T05:35:27.038112Z

Period
94.10 min
Inclination
53.1594°
Eccentricity
0.0002222
Mean motion
15.30226107 rev/d
Perigee alt
473.6 km
Apogee alt
476.7 km
Semi-major
6,853.3 km
B*
9.0983e-4
RAAN
133.7519°
Arg perigee
94.3320°
Mean anomaly
265.7934°
Rev number
7,362

§ Raw data

STARLINK-328671 62855U 25022B   26145.23295183  .00026707  00000+0  90983-3 0  99912 62855  53.1594 133.7519 0002222  94.3320 265.7934 15.30226107 73624

JSON: /api/v1/satellites/62855 · /tle

For live sub-satellite position, see the globe view (requires WebGL).

§ Visibility from observer

Set your observer location to see the next 7 days of passes ≥ 10°. The values pass through the URL so the page stays shareable.

No JS? Fill the form by hand. The geolocation button needs JavaScript.